Location: Auckland
(36.8670°S, 174.7670°E)
Time: 10:44:21
(UTC+12:00)

A-11 Canister half - Pass Details

Date: 24 July 2019
Orbit: 1526 x 1683 km, 47.3° (Epoch: 18 August)

Event Time Altitude Azimuth Distance (km) Brightness Sun altitude
Rises 12:31:34 0° 244° (WSW) 4,762 11.4 33.2°
Reaches altitude 10° 12:34:44 10° 239° (WSW) 3,797 10.9 33.1°
Maximum altitude 12:44:13 55° 162° (SSE) 1,909 9.6 33.0°
Drops below altitude 10° 12:53:58 10° 86° (E) 3,908 11.2 32.8°
Sets 12:57:17 0° 81° (E) 4,908 11.7 32.7°
